Погода в Нагорном

Украина / Одесская область     45°25′46″N   28°26′55″E
темп.,
°C
ветер,
м/с
пор.,
м/с
влажн.,
%
обл.,
%
осадки,
мм/ч
давл.,
гПа
погр.,
м
5 марта, пт
пт523:00+9зюз596865 0.0 1013165
02:00+7зюз457045 0.0 101371
05:00+6зюз47750 0.0 101292
08:00+7з33630 0.0 101283
11:00+12зюз344427 0.0 1013489
14:00+14зюз553859 0.0 1011694
17:00+14юз353837 0.0 1011176
20:00+11юз465068 0.0 1013128
6 марта, сб
сб623:00+8с6118043 0.0 1014390
02:00+5ссз7127623 0.0 1017579
05:00+5с8106768 0.0 10201026
08:00+3с7106684 0.0 1023958
11:00+5с7953100 0.0 10261266
14:00+5с6837100 0.0 10261709
17:00+5с673268 0.0 10271743
20:00+3с354733 0.0 1029131
7 марта, вс
вс723:00+2ссз34520 0.0 1031109
02:00+1ссз35570 0.0 1031132
05:000с23630 0.0 103051
08:00+1ююз22550 0.0 1030166
11:00+5юз68410 0.0 10281291
14:00+7юз79370 0.0 10251473
17:00+7юз68420 0.0 10221218
20:00+4ююз59550 0.0 1021223
8 марта, пн
пн823:00+4юз511625 0.0 1021289
02:00+3юз597126 0.0 1019282
05:00+1зюз47800 0.0 1018192
08:00+2з35760 0.0 1018200
11:00+6юз325241 0.0 1017514
14:00+8ююз334351 0.0 1016693
17:00+9ююз354573 0.0 1014997
20:00+6ююз345868 0.0 101550
9 марта, вт
вт923:00+5юз235981 0.0 101528
02:00+4ссз236488 0.0 101535
05:00+2с813614 0.0 1017369
08:00+2с711744 0.0 1019517
11:00+5ссв684927 0.0 1020936
14:00+7ссв564054 0.0 10201201
17:00+6ссв5542100 0.0 10191286
20:00+3ссв594765 0.0 1022334